Hourly Data Report for February 15, 2003

SHERBROOKE A
QUEBEC

45°26'00.000" N
71°41'00.000" W
241.40 m
7028124
71610
YSC

Download Data

Hourly Data (February 2003)
Hourly Data Report for February 15, 2003
TIME
LST
Temp Definition
°C
Dew Point Definition
°C
Rel Hum Definition
%
Precip. Amount Definition
mm

Wind Dir Definition
10's deg

Wind Spd Definition
km/h
Visibility Definition
km
Stn Press Definition
kPa
Hmdx Definition


Wind Chill Definition


Weather Definition


00:00 -30.0 -36.9 51   31 4 15.0 99.29   -35  
01:00 -31.4 -36.9 58     0 15.0 99.31      
02:00 -32.5 -37.8 59     0 15.0 99.37      
03:00 -34.0 -39.2 59     0 15.0 99.40      
04:00 -34.6 -40.6 54     0 15.0 99.48      
05:00 -35.3 -40.3 60     0 15.0 99.57      
06:00 -36.6 -42.3 56     0 15.0 99.64      
07:00 -37.0 -42.8 55     0 15.0 99.72      
08:00 -32.8 -38.0 60     0 24.1 99.86     Clear
09:00 -28.6 -34.9 55   29 4 24.1 99.90   -33 Clear
10:00 -24.7 -33.0 46   28 19 24.1 99.92   -36 Clear
11:00 -23.3 -32.3 43   28 13 24.1 99.97   -32 Mainly Clear
12:00 -22.6 -32.0 42   28 20 24.1 99.96   -34 Mainly Clear
13:00 -21.7 -32.0 39   30 20 24.1 99.97   -33 Mainly Clear
14:00 -21.3 -31.5 39   27 26 24.1 99.99   -33 Mainly Clear
15:00 -21.5 -32.0 38   29 19 24.1 100.10   -32 Mainly Clear
16:00 -21.8 -32.2 38   28 19 24.1 100.16   -32 Clear
17:00 -22.5 -33.3 37   28 13 24.1 100.21   -31 Clear
18:00 -24.5 -33.9 41   26 9 15.0 100.28   -32  
19:00 -25.1 -33.7 45   26 7 15.0 100.37   -32  
20:00 -26.3 -33.8 49   27 9 15.0 100.46   -34  
21:00 -26.2 -34.1 47   26 9 15.0 100.55   -34  
22:00 -26.4 -35.1 44   30 7 15.0 100.64   -33  
23:00 -26.7 -36.2 40   31 4 15.0 100.71   -31  

Notes on Data Quality.

Legend

  • E = Estimated
  • M = Missing
  • NA = Not Available*
  • [empty] = Indicates an unobserved value
Date modified: